| time (UTC) | temp F | wind direction | speed MPH | gust MPH | rain 1hr in | rain 24hr in | rain mn in | humidity % | barometer mb |
| 20260906074508 | 69 | 190 | 0.0 | 0.0 | 0.00 | 0.00 | 0.00 | 63 | 1008.9 |
| 20260906073045 | 69 | 187 | 0.0 | 1.0 | 0.00 | 0.00 | 0.00 | 63 | 1009.0 |
| 20260906071521 | 69 | 186 | 0.0 | 2.0 | 0.00 | 0.00 | 0.00 | 62 | 1009.0 |
| 20260906070111 | 69 | 189 | 0.0 | 3.0 | 0.00 | 0.00 | 0.00 | 62 | 1009.3 |
| 20260906064528 | 69 | 182 | 1.0 | 2.0 | 0.00 | 0.00 | 0.00 | 62 | 1009.1 |
| 20260906063059 | 70 | 187 | 0.0 | 0.0 | 0.00 | 0.00 | 0.00 | 62 | 1009.0 |
| 20260906063002 | 70 | 186 | 0.0 | 0.0 | 0.00 | 0.00 | 0.00 | 62 | 1009.1 |
| 20260906061543 | 70 | 186 | 0.0 | 0.0 | 0.00 | 0.00 | 0.00 | 61 | 1009.2 |
| 20260906060001 | 70 | 169 | 0.0 | 0.0 | 0.00 | 0.00 | 0.00 | 59 | 1009.6 |
| 20260906054548 | 71 | 165 | 1.0 | 3.0 | 0.00 | 0.00 | 0.00 | 59 | 1009.4 |
| 20260906053032 | 71 | 163 | 2.0 | 4.0 | 0.00 | 0.00 | 0.00 | 59 | 1009.5 |
| 20260906051505 | 71 | 165 | 2.0 | 3.0 | 0.00 | 0.00 | 0.00 | 58 | 1009.6 |
| 20260906050112 | 72 | 165 | 2.0 | 3.0 | 0.00 | 0.00 | 0.00 | 58 | 1009.6 |
| 20260906044515 | 72 | 166 | 0.0 | 1.0 | 0.00 | 0.00 | 0.00 | 57 | 1009.7 |
| 20260906043009 | 72 | 165 | 3.0 | 5.0 | 0.00 | 0.00 | 0.00 | 56 | 1009.4 |
| 20260906041545 | 73 | 166 | 2.0 | 5.0 | 0.00 | 0.00 | 0.00 | 55 | 1009.4 |
| 20260906040001 | 73 | 164 | 2.0 | 5.0 | 0.00 | 0.00 | 0.00 | 56 | 1009.4 |
| 20260906034505 | 73 | 165 | 1.0 | 4.0 | 0.00 | 0.00 | 0.00 | 55 | 1009.2 |
| 20260906033045 | 74 | 165 | 3.0 | 5.0 | 0.00 | 0.00 | 0.00 | 54 | 1009.1 |
| 20260906031542 | 74 | 167 | 1.0 | 4.0 | 0.00 | 0.00 | 0.00 | 53 | 1009.1 |
| 20260906030106 | 75 | 174 | 1.0 | 5.0 | 0.00 | 0.00 | 0.00 | 52 | 1009.0 |
| 20260906024538 | 76 | 360 | 2.0 | 4.0 | 0.00 | 0.00 | 0.00 | 52 | 1008.8 |
| 20260906023008 | 76 | 360 | 0.0 | 1.0 | 0.00 | 0.00 | 0.00 | 46 | 1008.7 |
| 20260906021547 | 76 | 360 | 0.0 | 2.0 | 0.00 | 0.00 | 0.00 | 47 | 1008.5 |
| 20260906020055 | 77 | 360 | 1.0 | 3.0 | 0.00 | 0.00 | 0.00 | 46 | 1008.6 |
| 20260906014557 | 77 | 360 | 1.0 | 4.0 | 0.00 | 0.00 | 0.00 | 46 | 1008.7 |
| 20260906013049 | 78 | 360 | 2.0 | 6.0 | 0.00 | 0.00 | 0.00 | 45 | 1008.8 |
| 20260906011525 | 78 | 14 | 4.0 | 9.0 | 0.00 | 0.00 | 0.00 | 44 | 1008.9 |
| 20260906010114 | 78 | 12 | 5.0 | 11.0 | 0.00 | 0.00 | 0.00 | 42 | 1008.9 |
| 20260906004536 | 79 | 14 | 7.0 | 12.0 | 0.00 | 0.00 | 0.00 | 45 | 1009.0 |
| 20260906003015 | 80 | 200 | 7.0 | 15.0 | 0.00 | 0.00 | 0.00 | 43 | 1008.9 |
| 20260906001505 | 80 | 229 | 8.0 | 15.0 | 0.00 | 0.00 | 0.00 | 42 | 1008.8 |
| 20260906000052 | 80 | 15 | 7.0 | 14.0 | 0.00 | 0.00 | 0.00 | 42 | 1008.9 |
| 20260905234557 | 80 | 14 | 6.0 | 13.0 | 0.00 | 0.00 | 0.00 | 42 | 1008.7 |
| 20260905233051 | 80 | 15 | 6.0 | 12.0 | 0.00 | 0.00 | 0.00 | 41 | 1008.8 |
| 20260905231537 | 79 | 202 | 6.0 | 10.0 | 0.00 | 0.00 | 0.00 | 44 | 1008.7 |
| 20260905230003 | 79 | 360 | 6.0 | 13.0 | 0.00 | 0.00 | 0.00 | 46 | 1008.9 |
| 20260905224537 | 79 | 360 | 8.0 | 18.0 | 0.00 | 0.00 | 0.00 | 47 | 1009.0 |
| 20260905223022 | 81 | 360 | 10.0 | 18.0 | 0.00 | 0.00 | 0.00 | 43 | 1009.0 |
| 20260905221507 | 83 | 22 | 9.0 | 13.0 | 0.00 | 0.00 | 0.00 | 38 | 1008.9 |
| 20260905220101 | 84 | 226 | 4.0 | 11.0 | 0.00 | 0.00 | 0.00 | 36 | 1008.8 |
| 20260905214516 | 85 | 225 | 9.0 | 15.0 | 0.00 | 0.00 | 0.00 | 35 | 1008.7 |
| 20260905213056 | 86 | 221 | 10.0 | 17.0 | 0.00 | 0.00 | 0.00 | 34 | 1009.0 |
| 20260905211540 | 86 | 186 | 6.0 | 16.0 | 0.00 | 0.00 | 0.00 | 33 | 1008.9 |
| 20260905210120 | 87 | 202 | 6.0 | 14.0 | 0.00 | 0.00 | 0.00 | 32 | 1009.0 |
| 20260905204532 | 87 | 180 | 6.0 | 10.0 | 0.00 | 0.00 | 0.00 | 31 | 1009.1 |
| 20260905203028 | 86 | 182 | 7.0 | 12.0 | 0.00 | 0.00 | 0.00 | 31 | 1009.2 |
| 20260905201600 | 86 | 251 | 7.0 | 13.0 | 0.00 | 0.00 | 0.00 | 30 | 1009.4 |
| 20260905201502 | 86 | 257 | 6.0 | 13.0 | 0.00 | 0.00 | 0.00 | 30 | 1009.4 |
| 20260905200049 | 86 | 248 | 8.0 | 13.0 | 0.00 | 0.00 | 0.00 | 29 | 1009.7 |
| 20260905194513 | 87 | 199 | 9.0 | 14.0 | 0.00 | 0.00 | 0.00 | 29 | 1009.8 |
| 20260905193052 | 86 | 248 | 8.0 | 16.0 | 0.00 | 0.00 | 0.00 | 29 | 1009.9 |
| 20260905191539 | 85 | 131 | 5.0 | 15.0 | 0.00 | 0.00 | 0.00 | 33 | 1010.1 |
| 20260905190117 | 85 | 125 | 10.0 | 14.0 | 0.00 | 0.00 | 0.00 | 32 | 1010.3 |
| 20260905184532 | 86 | 167 | 7.0 | 17.0 | 0.00 | 0.00 | 0.00 | 31 | 1010.5 |
| 20260905183012 | 86 | 122 | 6.0 | 11.0 | 0.00 | 0.00 | 0.00 | 30 | 1010.6 |
| 20260905181544 | 85 | 173 | 4.0 | 11.0 | 0.00 | 0.00 | 0.00 | 32 | 1010.7 |
| 20260905180118 | 84 | 193 | 6.0 | 12.0 | 0.00 | 0.00 | 0.00 | 32 | 1010.7 |
| 20260905174536 | 83 | 119 | 8.0 | 13.0 | 0.00 | 0.00 | 0.00 | 33 | 1010.7 |
| 20260905173013 | 82 | 148 | 8.0 | 15.0 | 0.00 | 0.00 | 0.00 | 34 | 1010.8 |
| 20260905171555 | 81 | 181 | 6.0 | 13.0 | 0.00 | 0.00 | 0.00 | 38 | 1010.9 |
| 20260905170009 | 80 | 131 | 6.0 | 12.0 | 0.00 | 0.00 | 0.00 | 40 | 1011.0 |
| 20260905164545 | 79 | 141 | 5.0 | 14.0 | 0.00 | 0.00 | 0.00 | 41 | 1011.0 |
| 20260905163020 | 78 | 188 | 8.0 | 12.0 | 0.00 | 0.00 | 0.00 | 42 | 1010.9 |
| 20260905161559 | 76 | 144 | 8.0 | 13.0 | 0.00 | 0.00 | 0.00 | 44 | 1010.9 |
| 20260905160051 | 74 | 176 | 8.0 | 12.0 | 0.00 | 0.00 | 0.00 | 47 | 1011.0 |
| 20260905154600 | 73 | 147 | 7.0 | 12.0 | 0.00 | 0.00 | 0.00 | 51 | 1011.1 |
| 20260905153035 | 70 | 177 | 5.0 | 10.0 | 0.00 | 0.00 | 0.00 | 52 | 1011.1 |
| 20260905151510 | 68 | 167 | 4.0 | 7.0 | 0.00 | 0.00 | 0.00 | 55 | 1011.0 |
| 20260905150045 | 66 | 169 | 3.0 | 6.0 | 0.00 | 0.00 | 0.00 | 58 | 1011.0 |
| 20260905144600 | 64 | 360 | 2.0 | 6.0 | 0.00 | 0.00 | 0.00 | 60 | 1011.0 |
| 20260905144502 | 64 | 360 | 1.0 | 6.0 | 0.00 | 0.00 | 0.00 | 61 | 1011.0 |
| 20260905143041 | 62 | 360 | 2.0 | 5.0 | 0.00 | 0.00 | 0.00 | 65 | 1010.9 |
| 20260905141516 | 59 | 360 | 3.0 | 4.0 | 0.00 | 0.00 | 0.00 | 70 | 1010.8 |
| 20260905140059 | 56 | 360 | 2.0 | 5.0 | 0.00 | 0.00 | 0.00 | 73 | 1010.6 |
| 20260905134509 | 55 | 152 | 3.0 | 6.0 | 0.00 | 0.00 | 0.00 | 75 | 1010.6 |
| 20260905133050 | 54 | 360 | 1.0 | 3.0 | 0.00 | 0.00 | 0.00 | 73 | 1010.2 |
| 20260905131525 | 55 | 155 | 1.0 | 3.0 | 0.00 | 0.00 | 0.00 | 73 | 1010.0 |
| 20260905130104 | 55 | 155 | 1.0 | 3.0 | 0.00 | 0.00 | 0.00 | 71 | 1009.8 |
| 20260905124521 | 56 | 156 | 0.0 | 0.0 | 0.00 | 0.00 | 0.00 | 71 | 1009.7 |
| 20260905123104 | 56 | 157 | 0.0 | 2.0 | 0.00 | 0.00 | 0.00 | 70 | 1009.6 |
| 20260905121544 | 57 | 157 | 0.0 | 2.0 | 0.00 | 0.00 | 0.00 | 68 | 1009.6 |
| 20260905120117 | 57 | 157 | 0.0 | 0.0 | 0.00 | 0.00 | 0.00 | 67 | 1009.4 |
| 20260905114541 | 58 | 157 | 0.0 | 1.0 | 0.00 | 0.00 | 0.00 | 67 | 1009.4 |
| 20260905113018 | 58 | 158 | 0.0 | 1.0 | 0.00 | 0.00 | 0.00 | 65 | 1009.4 |
| 20260905111507 | 59 | 158 | 0.0 | 2.0 | 0.00 | 0.00 | 0.00 | 64 | 1009.4 |
| 20260905110045 | 59 | 158 | 0.0 | 2.0 | 0.00 | 0.00 | 0.00 | 63 | 1009.3 |
| 20260905104555 | 59 | 158 | 1.0 | 3.0 | 0.00 | 0.00 | 0.00 | 63 | 1009.3 |
| 20260905103045 | 60 | 158 | 0.0 | 3.0 | 0.00 | 0.00 | 0.00 | 62 | 1009.1 |
| 20260905101539 | 60 | 158 | 2.0 | 5.0 | 0.00 | 0.00 | 0.00 | 61 | 1009.1 |
| 20260905100116 | 60 | 158 | 3.0 | 6.0 | 0.00 | 0.00 | 0.00 | 61 | 1009.1 |
| 20260905094534 | 60 | 158 | 3.0 | 6.0 | 0.00 | 0.00 | 0.00 | 61 | 1009.2 |
| 20260905093018 | 61 | 158 | 1.0 | 6.0 | 0.00 | 0.00 | 0.00 | 60 | 1009.2 |
| 20260905091559 | 61 | 159 | 2.0 | 6.0 | 0.00 | 0.00 | 0.00 | 60 | 1009.1 |
| 20260905090049 | 62 | 192 | 1.0 | 3.0 | 0.00 | 0.00 | 0.00 | 63 | 1009.1 |
| 20260905084508 | 63 | 192 | 1.0 | 3.0 | 0.00 | 0.00 | 0.00 | 64 | 1009.3 |
| 20260905083050 | 63 | 192 | 0.0 | 2.0 | 0.00 | 0.00 | 0.00 | 63 | 1009.3 |
| 20260905081531 | 64 | 192 | 0.0 | 0.0 | 0.00 | 0.00 | 0.00 | 60 | 1009.3 |
| 20260905080115 | 65 | 192 | 0.0 | 2.0 | 0.00 | 0.00 | 0.00 | 59 | 1009.4 |